TimeEST,TemperatureF,Dew PointF,Humidity,Sea Level PressureIn,VisibilityMPH,Wind Direction,Wind SpeedMPH,Gust SpeedMPH,PrecipitationIn,Events,Conditions,WindDirDegrees,DateUTC
12:00 AM,37.2,34.5,90,30.26,10.0,Calm,Calm,-,N/A,,Clear,0,2012-11-27 05:00:00
12:22 AM,38.5,35.6,89,30.25,10.0,East,3.5,-,N/A,,Scattered Clouds,80,2012-11-27 05:22:00
12:43 AM,39.2,34.2,82,30.25,10.0,ESE,5.8,-,N/A,,Mostly Cloudy,110,2012-11-27 05:43:00
1:04 AM,39.4,34.7,83,30.25,10.0,East,3.5,-,N/A,,Scattered Clouds,90,2012-11-27 06:04:00
1:26 AM,39.6,34.7,83,30.25,10.0,East,3.5,-,N/A,,Scattered Clouds,90,2012-11-27 06:26:00
1:47 AM,39.6,35.6,86,30.25,10.0,ENE,4.6,-,N/A,,Mostly Cloudy,70,2012-11-27 06:47:00
2:08 AM,39.7,35.1,83,30.24,10.0,East,4.6,-,N/A,,Scattered Clouds,90,2012-11-27 07:08:00
2:29 AM,40.1,35.6,84,30.24,10.0,East,3.5,-,N/A,,Clear,90,2012-11-27 07:29:00
2:51 AM,40.1,36.0,85,30.24,10.0,East,3.5,-,N/A,,Clear,100,2012-11-27 07:51:00
3:12 AM,40.8,36.5,85,30.24,10.0,ESE,4.6,-,N/A,,Scattered Clouds,110,2012-11-27 08:12:00
3:33 AM,41.0,37.4,87,30.23,10.0,ESE,3.5,-,N/A,,Scattered Clouds,120,2012-11-27 08:33:00
3:55 AM,41.2,38.5,90,30.24,10.0,Calm,Calm,-,N/A,Rain,Light Rain,0,2012-11-27 08:55:00
4:16 AM,41.0,39.7,95,30.21,10.0,East,4.6,-,N/A,Rain,Light Rain,90,2012-11-27 09:16:00
4:37 AM,41.9,40.5,95,30.21,10.0,East,4.6,-,N/A,,Light Drizzle,80,2012-11-27 09:37:00
4:58 AM,42.1,40.8,95,30.22,10.0,East,3.5,-,N/A,,Scattered Clouds,100,2012-11-27 09:58:00
5:20 AM,42.1,41.4,97,30.22,10.0,ENE,3.5,-,N/A,,Clear,70,2012-11-27 10:20:00
5:41 AM,42.6,41.9,97,30.23,10.0,NE,3.5,-,N/A,,Clear,50,2012-11-27 10:41:00
5:50 AM,42.8,41.0,93,30.24,10.0,Calm,Calm,-,N/A,,Clear,0,2012-11-27 10:50:00
6:02 AM,43.0,42.1,97,30.24,10.0,ENE,4.6,-,N/A,,Clear,70,2012-11-27 11:02:00
6:24 AM,43.2,42.1,96,30.23,10.0,East,3.5,-,N/A,,Clear,90,2012-11-27 11:24:00
6:39 AM,43.2,42.1,96,30.24,7.0,SE,3.5,-,N/A,Rain,Light Rain,130,2012-11-27 11:39:00
6:50 AM,42.8,42.8,100,30.24,7.0,Calm,Calm,-,N/A,Rain,Light Rain,0,2012-11-27 11:50:00
7:50 AM,42.8,42.8,100,30.22,5.0,East,6.9,-,N/A,Rain,Light Rain,90,2012-11-27 12:50:00
8:50 AM,44.6,44.6,100,30.21,5.0,Calm,Calm,-,N/A,Rain,Light Rain,0,2012-11-27 13:50:00
9:55 AM,44.6,44.6,100,30.20,4.0,East,3.5,-,N/A,,Light Drizzle,100,2012-11-27 14:55:00
10:50 AM,46.4,46.4,100,30.20,8.0,Calm,Calm,-,N/A,Rain,Light Rain,0,2012-11-27 15:50:00
11:16 AM,46.4,46.4,100,30.20,2.0,North,6.9,-,N/A,Rain,Light Rain,350,2012-11-27 16:16:00
11:50 AM,44.6,44.6,100,30.19,1.8,North,4.6,-,N/A,Rain,Light Rain,10,2012-11-27 16:50:00
12:50 PM,44.6,44.6,100,30.18,2.0,North,3.5,-,N/A,Rain,Light Rain,360,2012-11-27 17:50:00
1:53 PM,41.0,41.0,100,30.18,1.5,North,8.1,-,N/A,Rain,Light Rain,350,2012-11-27 18:53:00
2:53 PM,41.0,41.0,100,30.18,4.0,North,8.1,-,N/A,Rain,Light Rain,10,2012-11-27 19:53:00
3:53 PM,39.2,39.2,100,30.19,5.0,North,9.2,-,N/A,,Overcast,350,2012-11-27 20:53:00
4:53 PM,39.2,39.2,100,30.20,6.0,North,9.2,-,N/A,,Overcast,10,2012-11-27 21:53:00
5:53 PM,37.4,37.4,100,30.23,7.0,North,8.1,-,N/A,,Overcast,10,2012-11-27 22:53:00
6:53 PM,39.2,39.2,100,30.24,10.0,North,6.9,-,N/A,,Overcast,10,2012-11-27 23:53:00
7:53 PM,37.4,37.4,100,30.26,7.0,North,9.2,-,N/A,,Overcast,360,2012-11-28 00:53:00
8:53 PM,37.4,37.4,100,30.26,7.0,North,11.5,-,N/A,,Overcast,360,2012-11-28 01:53:00
9:58 PM,37.8,37.8,100,30.27,7.0,North,9.2,-,N/A,,Overcast,360,2012-11-28 02:58:00
10:20 PM,37.8,37.8,100,30.27,7.0,North,6.9,-,N/A,,Overcast,10,2012-11-28 03:20:00
10:41 PM,37.8,37.8,100,30.28,7.0,North,8.1,-,N/A,,Overcast,360,2012-11-28 03:41:00
11:02 PM,37.9,37.9,100,30.28,7.0,North,9.2,-,N/A,,Mostly Cloudy,10,2012-11-28 04:02:00
11:24 PM,38.1,38.1,100,30.27,7.0,North,5.8,-,N/A,,Mostly Cloudy,10,2012-11-28 04:24:00
11:45 PM,37.4,37.4,100,30.27,7.0,North,4.6,-,N/A,,Mostly Cloudy,10,2012-11-28 04:45:00